User: anonymous   Login
Location: Pleiades Observatory
(40.1297°N, 91.5238°W)
Time: 07:47:17
(UTC-05:00)
Language:

Cosmos 1842 Rocket - Orbit

View from above orbital plane
View from above orbital plane
View from above satellite
View from above satellite

Ground track
Ground track

The orbit data is extracted from the following two-line orbital elements,

1 17912U 87038B   15181.65940009  .00000156  00000-0  16325-4 0  9998
2 17912 082.5013 003.4922 0021882 074.5597 285.8032 14.82732818521391
Epoch (UTC): 30 June 2015 15:49:32
Eccentricity: 0.0021882
inclination: 82.5013°
perigee height: 605 km
apogee height: 636 km
right ascension of ascending node: 3.4922°
argument of perigee: 74.5597°
revolutions per day: 14.82732818
mean anomaly at epoch: 285.8032°
orbit number at epoch: 52139

The dashed part of the orbit path shows where the satellite is in the earth's shadow,  

DLR